Weather History for K2W6 - March, 2013

Change the Weather History Date:

Saturday, March 16, 2013

  Actual Average (KNHK) Record (KNHK)
Temperature  
Mean Temperature 48 °F -  
Max Temperature 59 °F 52 °F 73 °F (2002)
Min Temperature 37 °F 35 °F 24 °F (1979)
Degree Days  
Heating Degree Days 17    
Moisture  
Dew Point 37 °F    
Average Humidity 69    
Maximum Humidity 87    
Minimum Humidity 50    
Precipitation  
Precipitation 0.00 in - - ()
Sea Level Pressure  
Sea Level Pressure 29.78 in    
Wind  
Wind Speed 3 mph (East)    
Max Wind Speed 9 mph    
Max Gust Speed -    
Visibility 10 miles    
Events      
Averages and records for this station are not official NWS values.
T = Trace of Precipitation, MM = Missing Value Source: NWS Daily Summary

Daily Weather History Graph

Daily Weather History Graph

Search for Another Location

Airport or City:

Trip Planner

Search our weather history database for the weather conditions in past years. The results will help you decide how hot, cold, wet, or windy it might be!

Date:

Astronomy

Mar. 16, 2013 Rise Set
Actual Time 7:15 AM EDT 7:14 PM EDT
Civil Twilight 6:49 AM EDT 7:40 PM EDT
Nautical Twilight 6:18 AM EDT 8:11 PM EDT
Astronomical Twilight 5:47 AM EDT 8:42 PM EDT
Moon 9:47 AM EDT (3/16) No Moon Set
Length of Visible Light 12h 51m
Length of Day
11h 59m
Waxing Crescent, 23% of the Moon is Illuminated
Mar 16
Waxing Crescent
Mar 19
First Quarter
Mar 27
Full
Apr 3
Last Quarter
Apr 10
New

Hourly Weather History & Observations

Time (EDT) Temp. Windchill Dew Point Humidity Pressure Visibility Wind Dir Wind Speed Gust Speed Precip Events Conditions
12:12 AM 42.8 °F 41.1 °F 32.0 °F 66% 29.83 in 10.0 mi NW 3.5 mph - N/A   Clear
12:32 AM 42.8 °F - 32.0 °F 66% 29.83 in 10.0 mi Calm Calm - N/A   Clear
12:52 AM 41.0 °F - 32.0 °F 70% 29.82 in 10.0 mi Calm Calm - N/A   Clear
1:12 AM 39.2 °F - 32.0 °F 75% 29.82 in 10.0 mi Calm Calm - N/A   Clear
1:32 AM 41.0 °F - 32.0 °F 70% 29.82 in 10.0 mi Calm Calm - N/A   Clear
1:52 AM 37.4 °F - 32.0 °F 81% 29.81 in 10.0 mi Calm Calm - N/A   Clear
2:12 AM 41.0 °F - 32.0 °F 70% 29.81 in 10.0 mi Calm Calm - N/A   Clear
2:32 AM 42.8 °F - 32.0 °F 66% 29.81 in 10.0 mi Calm Calm - N/A   Clear
2:52 AM 41.0 °F 39.0 °F 32.0 °F 70% 29.81 in 10.0 mi West 3.5 mph - N/A   Clear
3:12 AM 41.0 °F - 32.0 °F 70% 29.81 in 10.0 mi Calm Calm - N/A   Clear
3:32 AM 41.0 °F - 32.0 °F 70% 29.81 in 10.0 mi Calm Calm - N/A   Clear
3:52 AM 41.0 °F - 32.0 °F 70% 29.80 in 10.0 mi Calm Calm - N/A   Mostly Cloudy
4:12 AM 41.0 °F - 32.0 °F 70% 29.80 in 10.0 mi Calm Calm - N/A   Mostly Cloudy
4:33 AM 39.2 °F - 32.0 °F 75% 29.80 in 10.0 mi Calm Calm - N/A   Overcast
5:13 AM 39.2 °F - 32.0 °F 75% 29.81 in 10.0 mi Calm Calm - N/A   Mostly Cloudy
5:33 AM 39.2 °F - 32.0 °F 75% 29.81 in 10.0 mi Calm Calm - N/A   Overcast
5:53 AM 41.0 °F - 32.0 °F 70% 29.81 in 10.0 mi Calm Calm - N/A   Overcast
6:33 AM 39.2 °F - 32.0 °F 75% 29.82 in 10.0 mi Calm Calm - N/A   Overcast
6:53 AM 41.0 °F - 32.0 °F 70% 29.83 in 10.0 mi Calm Calm - N/A   Overcast
7:13 AM 41.0 °F - 33.8 °F 76% 29.82 in 10.0 mi Calm Calm - N/A   Overcast
7:33 AM 41.0 °F - 33.8 °F 76% 29.83 in 10.0 mi Calm Calm - N/A   Overcast
7:53 AM 42.8 °F - 33.8 °F 70% 29.83 in 10.0 mi Calm Calm - N/A   Overcast
8:13 AM 42.8 °F 41.1 °F 33.8 °F 70% 29.83 in 10.0 mi NE 3.5 mph - N/A   Overcast
8:33 AM 44.6 °F 43.1 °F 33.8 °F 66% 29.83 in 10.0 mi East 3.5 mph - N/A   Overcast
8:53 AM 44.6 °F 42.2 °F 32.0 °F 61% 29.84 in 10.0 mi East 4.6 mph - N/A   Overcast
9:13 AM 44.6 °F 43.1 °F 33.8 °F 66% 29.84 in 10.0 mi East 3.5 mph - N/A   Overcast
9:33 AM 44.6 °F 41.4 °F 33.8 °F 66% 29.84 in 10.0 mi East 5.8 mph - N/A   Overcast
9:53 AM 46.4 °F 44.3 °F 33.8 °F 62% 29.83 in 10.0 mi East 4.6 mph - N/A   Mostly Cloudy
10:13 AM 46.4 °F 42.4 °F 33.8 °F 62% 29.80 in 10.0 mi ESE 8.1 mph - N/A   Overcast
10:33 AM 48.2 °F - 33.8 °F 58% 29.79 in 10.0 mi ESE 9.2 mph - N/A   Overcast
10:53 AM 50.0 °F - 33.8 °F 54% 29.78 in 10.0 mi ESE 8.1 mph - N/A   Overcast
11:13 AM 51.8 °F - 33.8 °F 50% 29.78 in 10.0 mi ESE 5.8 mph - N/A   Scattered Clouds
11:33 AM 53.6 °F - 35.6 °F 51% 29.76 in 10.0 mi SSE 4.6 mph - N/A   Scattered Clouds
11:53 AM 53.6 °F - 37.4 °F 54% 29.76 in 10.0 mi SSE 6.9 mph - N/A   Clear
12:13 PM 55.4 °F - 37.4 °F 51% 29.75 in 10.0 mi SSE 8.1 mph - N/A   Clear
12:33 PM 55.4 °F - 37.4 °F 51% 29.73 in 10.0 mi SE 8.1 mph - N/A   Clear
12:53 PM 55.4 °F - 37.4 °F 51% 29.72 in 10.0 mi SSE 5.8 mph - N/A   Clear
1:14 PM 55.4 °F - 37.4 °F 51% 29.72 in 10.0 mi ESE 5.8 mph - N/A   Clear
1:34 PM 55.4 °F - 39.2 °F 54% 29.73 in 10.0 mi South 5.8 mph - N/A   Scattered Clouds
1:54 PM 55.4 °F - 41.0 °F 58% 29.73 in 10.0 mi South 4.6 mph - N/A   Mostly Cloudy
2:14 PM 53.6 °F - 42.8 °F 67% 29.70 in 10.0 mi SSE 5.8 mph - N/A   Overcast
2:34 PM 53.6 °F - 44.6 °F 72% 29.67 in 10.0 mi SE 6.9 mph - N/A   Mostly Cloudy
2:54 PM 53.6 °F - 44.6 °F 72% 29.67 in 10.0 mi SSE 3.5 mph - N/A   Scattered Clouds
3:14 PM 53.6 °F - 44.6 °F 72% 29.67 in 10.0 mi SE 4.6 mph - N/A   Clear
3:34 PM 55.4 °F - 44.6 °F 67% 29.66 in 10.0 mi SSW 8.1 mph - N/A   Clear
3:54 PM 59.0 °F - 44.6 °F 59% 29.65 in 10.0 mi SSE 5.8 mph - N/A   Clear
4:14 PM 59.0 °F - 44.6 °F 59% 29.65 in 10.0 mi South 5.8 mph - N/A   Clear
4:34 PM 59.0 °F - 44.6 °F 59% 29.65 in 10.0 mi SSW 3.5 mph - N/A   Mostly Cloudy
4:54 PM 55.4 °F - 44.6 °F 67% 29.65 in 10.0 mi NNE 3.5 mph - N/A   Mostly Cloudy
5:14 PM 55.4 °F - 44.6 °F 67% 29.65 in 10.0 mi East 5.8 mph - N/A   Scattered Clouds
5:34 PM 53.6 °F - 44.6 °F 72% 29.66 in 10.0 mi ENE 4.6 mph - N/A   Scattered Clouds
5:54 PM 51.8 °F - 42.8 °F 71% 29.66 in 10.0 mi ENE 3.5 mph - N/A   Mostly Cloudy
6:14 PM 51.8 °F - 42.8 °F 71% 29.67 in 10.0 mi Calm Calm - N/A   Mostly Cloudy
6:34 PM 50.0 °F - 42.8 °F 76% 29.69 in 10.0 mi Calm Calm - N/A   Overcast
6:54 PM 50.0 °F - 42.8 °F 76% 29.69 in 10.0 mi North 3.5 mph - N/A   Scattered Clouds
7:14 PM 50.0 °F - 42.8 °F 76% 29.71 in 10.0 mi Calm Calm - N/A   Scattered Clouds
7:34 PM 50.0 °F - 42.8 °F 76% 29.73 in 10.0 mi NNE 3.5 mph - N/A   Scattered Clouds
7:54 PM 48.2 °F - 41.0 °F 76% 29.74 in 10.0 mi North 5.8 mph - N/A   Scattered Clouds
8:14 PM 46.4 °F 43.5 °F 39.2 °F 76% 29.76 in 10.0 mi North 5.8 mph - N/A   Clear
8:34 PM 44.6 °F 39.7 °F 37.4 °F 76% 29.78 in 10.0 mi North 9.2 mph - N/A   Scattered Clouds
8:54 PM 44.6 °F 41.4 °F 37.4 °F 76% 29.79 in 10.0 mi NE 5.8 mph - N/A   Scattered Clouds
9:14 PM 44.6 °F 42.2 °F 35.6 °F 71% 29.82 in 10.0 mi NNE 4.6 mph - N/A   Clear
9:35 PM 41.0 °F 35.8 °F 35.6 °F 81% 29.84 in 10.0 mi North 8.1 mph - N/A   Clear
9:55 PM 41.0 °F 37.1 °F 33.8 °F 76% 29.86 in 10.0 mi North 5.8 mph - N/A   Scattered Clouds
10:15 PM 41.0 °F 36.4 °F 33.8 °F 76% 29.87 in 10.0 mi NNE 6.9 mph - N/A   Scattered Clouds
10:35 PM 39.2 °F 35.0 °F 33.8 °F 81% 29.88 in 10.0 mi North 5.8 mph - N/A   Clear
10:55 PM 39.2 °F 35.0 °F 33.8 °F 81% 29.89 in 10.0 mi NNE 5.8 mph - N/A   Clear
11:15 PM 37.4 °F 33.8 °F 33.8 °F 87% 29.91 in 10.0 mi North 4.6 mph - N/A   Clear
11:35 PM 37.4 °F 33.8 °F 33.8 °F 87% 29.91 in 10.0 mi North 4.6 mph - N/A   Clear
11:55 PM 37.4 °F 34.9 °F 33.8 °F 87% 29.91 in 10.0 mi NNE 3.5 mph - N/A   Clear